Regional Weather Roundup
Issued by NWS

Home | Current Version | Previous Version | Graphics & Text | Print | Product List | Glossary On
Versions: 1 2 3 4 5 6 7 8 9 10 11 12 13 14 15 16 17 18 19 20 21 22 23 24 25 26 27 28 29 30 31 32 33 34 35 36 37 38 39 40 41 42 43 44 45 46 47 48 49 50
000
ASUS43 KIND 201159
RWRIN

WEATHER ROUNDUP FOR INDIANA
NATIONAL WEATHER SERVICE INDIANAPOLIS IN
800 AM EDT MON OCT 20 2014

NOTE: "FAIR" INDICATES FEW OR NO CLOUDS BELOW 12,000 FEET WITH NO
SIGNIFICANT WEATHER AND/OR OBSTRUCTIONS TO VISIBILITY.

* - STATION DOES NOT REPORT WEATHER SUCH AS PRECIPITATION OR FOG.

+ - STATION NOT QUALITY CONTROLLED BY THE NATIONAL WEATHER SERVICE.
    USE DATA WITH CAUTION...ESPECIALLY DEWPOINT AND RELATIVE
    HUMIDITY OBSERVATIONS.

INZ001>003-010>013-019-020-201300-
NORTHWEST INDIANA

CITY           SKY/WX    TMP DP  RH WIND       PRES   REMARKS
GARY /AIRPORT/ MOCLDY    52  45  76 SW12      29.81F
VALPARAISO     NOT AVBL

$$

LMZ046-743>745-201300-
SOUTHERN LAKE MICHIGAN

STATION/POSITION TIME  TEMP WIND        PRES
                       AIR  DIR/SP/G
                 (UTC) (F)  (DEG/KT/KT) (MB)
MICHIGAN CITY    1100   49  160/ 12/ 15   N/A

$$

INZ004-005-014>016-021>024-201300-
NORTH CENTRAL INDIANA

CITY           SKY/WX    TMP DP  RH WIND       PRES   REMARKS
GOSHEN         CLOUDY    50  44  80 S9        29.84F
6HR MIN TEMP:  48; 6HR MAX TEMP:  50; 6HR PCP:  0.03;

SOUTH BEND     PTCLDY    49  44  83 SW10      29.84S
6HR MIN TEMP:  49; 6HR MAX TEMP:  50; 6HR PCP:  0.01;


$$

INZ006>009-017-018-025>027-201300-
NORTHEAST INDIANA

CITY           SKY/WX    TMP DP  RH WIND       PRES   REMARKS
ANGOLA *+      CLOUDY    46  36  66 S7        29.85F
FORT WAYNE     CLOUDY    50  44  80 S13       29.89F
6HR MIN TEMP:  45; 6HR MAX TEMP:  50;


$$

INZ028-029-035-036-043>045-051>053-201300-
WEST CENTRAL INDIANA

CITY           SKY/WX    TMP DP  RH WIND       PRES   REMARKS
GREENCASTLE +  CLOUDY    48  45  87 S3        29.94F
LAFAYETTE      CLOUDY    52  45  77 SW8       29.88F
6HR MIN TEMP:  47; 6HR MAX TEMP:  52; 6HR PCP: TRACE;

TERRE HAUTE    MOCLDY    50  45  83 S8        29.94F
6HR MIN TEMP:  47; 6HR MAX TEMP:  50; 6HR PCP: TRACE;


$$

INZ030>032-037>040-046>048-054>057-064-065-201300-
CENTRAL INDIANA

CITY           SKY/WX    TMP DP  RH WIND       PRES   REMARKS
COLUMBUS       CLOUDY    48  46  93 S8        29.98F
INDIANAPOLIS   MOCLDY    49  44  83 S10       29.94F
6HR MIN TEMP:  47; 6HR MAX TEMP:  49; 6HR PCP:  0.01;

-EAGLE CREEK   CLOUDY    50  44  80 SW8       29.93F
6HR MIN TEMP:  47; 6HR MAX TEMP:  50; 6HR PCP: TRACE;

KOKOMO *+      CLOUDY    50  43  76 S10       29.89F
MT COMFORT *+  MOCLDY    48  43  81 S7        29.94F
SHELBYVILLE    CLOUDY    49  44  83 S10       29.96S
6HR MIN TEMP:  47; 6HR MAX TEMP:  49; 6HR PCP: TRACE;


$$

INZ033-034-041-042-049-050-058-059-201300-
EAST CENTRAL INDIANA

CITY           SKY/WX    TMP DP  RH WIND       PRES   REMARKS
MUNCIE         CLOUDY    51  44  77 SW10      29.92F
6HR MIN TEMP:  47; 6HR MAX TEMP:  51; 6HR PCP: TRACE;


$$

INZ060-061-067>069-081>083-085>088-201300-
SOUTHWEST INDIANA

CITY           SKY/WX    TMP DP  RH WIND       PRES   REMARKS
EVANSVILLE     CLOUDY    51  47  86 S7        30.02S
6HR MIN TEMP:  46; 6HR MAX TEMP:  51; 6HR PCP:  0.06;

HUNTINGBURG *+ CLOUDY    48  45  87 SW8       30.02F
6HR MIN TEMP:  43; 6HR MAX TEMP:  48; 6HR PCP:  0.01;


$$

INZ062-063-066-070>080-084-089>092-201300-
SOUTH CENTRAL AND SOUTHEAST INDIANA

CITY           SKY/WX    TMP DP  RH WIND       PRES   REMARKS
BLOOMINGTON    CLOUDY    50  45  83 S6        29.97F
6HR MIN TEMP:  47; 6HR MAX TEMP:  50;


$$



USA.gov is the U.S. government's official web portal to all federal, state and local government web resources and services.